Location: Newark
(19.4333°N, 15.3500°W)
Time: 13:07:08
(UTC+00:00)

N. Korean satellite - Visible Passes

Search period start: 12 November 2019 00:00
Search period end: 22 November 2019 00:00
Orbit: 456 x 506 km, 97.2° (Epoch: 12 November)

Date Brightness Start Highest point End Pass type
(mag) Time Alt. Az. Time Alt. Az. Time Alt. Az.
12 Nov 9.3 06:08:02 10° NE 06:11:03 24° E 06:14:02 10° SSE visible
13 Nov 10.1 19:14:23 10° SW 19:16:09 13° W 19:17:56 10° WNW visible
14 Nov 8.7 18:47:33 10° SSW 18:50:44 32° W 18:53:59 10° NNW visible
15 Nov 7.9 06:24:47 10° NNE 06:28:19 44° E 06:31:47 10° S visible
16 Nov 9.7 06:00:20 10° NE 06:02:55 18° E 06:05:27 10° SE visible
17 Nov 9.8 19:05:31 10° SW 19:07:59 18° W 19:10:29 10° NW visible
18 Nov 6.6 06:41:51 10° N 06:45:31 89° ESE 06:49:07 10° S visible
19 Nov 8.6 06:16:50 10° NNE 06:20:09 33° E 06:23:24 10° SSE visible
20 Nov 10.0 05:52:50 10° ENE 05:54:43 14° E 05:56:35 10° SE visible
21 Nov 9.4 18:56:51 10° SSW 18:59:46 23° W 19:02:44 10° NW visible
